NOAA 16 DEB, 42416

Orbit data source: Space-Track

NOAA 16 DEB, 42416 is space debris in SSO originally from a launch on Thu, 21 Sep 2000 UTC launched from the Air Force Western Test Range (AFWTR). Debris objects in space refer to the collection of defunct objects orbiting the Earth. Examples of debris include non-operational satellites, rocket bodies, and fragments generated from explosions, collisions, or faulty payload assembly.

Loading next visibility...
Identifier
42416, 2000-055TL
Orbit
SSO
Country
Flag of USUS
Related business
Manufacturer
Unknown
Mission
Spacecraft
Bus & Motor
Unknown
Mass
Unknown
Launch date (UTC)
2000-09-21 (25 years ago)
Launch vehicle
Unknown
Launch site
Air Force Western Test Range (AFWTR)
Object type
Payload
Rocket body
Debris
Shape & HBR
Unknown shape, 0.1 m
Radar Cross Section
Small (<0.1 m²)

Expand to show TLE details & history
Last TLE update: 2 days ago

TLE from 2 days ago
0 NOAA 16 DEB
1 42416U 00055TL  26072.85225414  .00024276  00000-0  50188-2 0  9990
2 42416  98.8517 215.8124 0013619 196.3168 163.7594 14.60246967515948
Epoch: 2026-03-13T20:27Z
TLE epoch observation values (Epoch: 2026-03-13T20:27:14.757Z)
Latitude
0.00001°
Longitude
97.51907°
Altitude
704.589 km
Speed
7.499 km/s
True Right ascension
14h 23m 14s
True Declination
0° 00' 00"
Sunlit
Object was in full shadow at epoch
Visualization orbit readout
Latitude
Unknown
Longitude
Unknown
Altitude
Unknown
Speed
Unknown
Apparent Right ascension
Unknown
Apparent Declination
Unknown
Sunlit
N/A
Visualization observer readout
Local Sidereal Time
20:26:14
Azimuth
Unknown
Elevation
Unknown
Doppler factor
Unknown
Orbital elements
Apogee altitude
699.114 km
Perigee altitude
679.863 km
Semi-major axis
7,067.626 km
Eccentricity
0.00136
Inclination
98.8517°
RAAN
215.8124°
Arg. of periapsis
196.3168°
True anomaly
163.80297°
Mean anomaly
163.7594°
Eccentric anomaly
163.78119°
Mean motion
3.65286 °/min
Orbital period
98.55 mins
BSTAR
0.0050188
Loading maneuver chart data...
Computing Atmospheric mass density...
Loading historical data...
Loading historical data...
Loading historical data...
Loading historical data...
Loading historical data...
Loading historical data...
Loading historical data...

Documentation

Showing up to 5 results
|